x

Sombrero Key, Fl (smkf1) Weather Station

9:00am - Thu 29th Jan 2015 All times are CST. -5 hours from GMT.

  • Wind
    18mph, 21mph gusts
  • Air Temp 61°f
  • Sea Pressure 1023.6mb
  • Sombrero Key, Fl
  • Sombrero Key, Fl

More Historic Weather Station data

Upgrade to MSW Pro to gain access to the past 30 days of data for over 8000 Wavebouys and Weather Stations around the globe.

Join Pro

Comparision Forecast

View Surf forecast
   
Thu 01/29 9:00am 18 21 mph 1023.6mb 61f
8:00am 17 20 mph 1023.1mb 60f
7:00am 17 18 mph 1022.9mb 60f
6:00am 21 22 mph 1021.9mb 60f
5:00am 23 26 mph 1021.6mb 59f
4:00am 22 25 mph 1021.7mb 59f
3:00am 21 22 mph 1021.7mb 61f
2:00am 21 22 mph 1022.1mb 61f
1:00am 20 22 mph 1021.9mb 62f
12:00am 22 23 mph 1022.4mb 62f
Wed 01/28 11:00pm 20 21 mph 1022.9mb 62f
10:00pm 21 23 mph 1022.5mb 64f
9:00pm 21 22 mph 1022mb 64f
8:00pm 21 22 mph 1021.9mb 64f
7:00pm 14 17 mph 1021.6mb 65f
6:00pm 13 14 mph 1021.4mb 64f
5:00pm 16 17 mph 1021.1mb 64f
4:00pm 13 14 mph 1020.8mb 63f
3:00pm 14 16 mph 1020.7mb 63f
2:00pm 14 15 mph 1020.9mb 62f
1:00pm 15 16 mph 1021.5mb 62f
12:00pm 18 22 mph 1022.4mb 62f
11:00am 17 18 mph 1022.9mb 61f
10:00am 18 21 mph 1022.5mb 61f
9:00am 22 24 mph 1021.6mb 60f
8:00am 23 26 mph 1020.7mb 61f
7:00am 24 25 mph 1019.7mb 62f
6:00am 28 29 mph 1018.6mb 64f
5:00am 15 16 mph 1018.1mb 68f
4:00am 16 17 mph 1018.3mb 68f
3:00am 13 14 mph 1018.4mb 67f
2:00am 15 17 mph 1018.7mb 67f
1:00am 15 16 mph 1018.9mb 67f
12:00am 15 17 mph 1019.2mb 67f
Tue 01/27 11:00pm 15 17 mph 1019.3mb 67f
10:00pm 15 16 mph 1018.9mb 67f
9:00pm 9 11 mph 1018.8mb 66f
8:00pm 10 11 mph 1018.5mb 65f
7:00pm 13 14 mph 1018.1mb 65f
6:00pm 13 14 mph 1017.9mb 65f
5:00pm 11 13 mph 1017.9mb 65f
4:00pm 14 15 mph 1017.8mb 64f
3:00pm 15 16 mph 1017.6mb 63f
2:00pm 15 17 mph 1017.8mb 63f
1:00pm 11 14 mph 1018.7mb 63f
12:00pm 10 11 mph 1019.4mb 63f
11:00am 13 14 mph 1019.6mb 62f
10:00am 14 15 mph 1019.2mb 64f
9:00am 14 16 mph 1018.7mb 66f
8:00am 21 22 mph 1017.9mb 66f
7:00am 22 23 mph 1017.5mb 66f
6:00am 21 22 mph 1016.7mb 66f
5:00am 21 22 mph 1016.3mb 66f
4:00am 23 24 mph 1016.2mb 67f
3:00am 25 26 mph 1016.3mb 66f
2:00am 25 29 mph 1016.3mb 67f
1:00am 24 28 mph 1016.4mb 67f
12:00am 23 24 mph 1016.3mb 68f
Mon 01/26 11:00pm 23 25 mph 1016.4mb 68f
10:00pm 26 28 mph 1016.2mb 68f
9:00pm 22 24 mph 1016mb 69f
8:00pm 25 28 mph 1015.6mb 69f
7:00pm 28 30 mph 1015.2mb 69f
6:00pm 31 33 mph 1014.6mb 70f
5:00pm 29 31 mph 1014.2mb 70f
4:00pm 28 29 mph 1013.8mb 70f
3:00pm 22 25 mph 1013.9mb 69f
2:00pm 24 26 mph 1013.8mb 69f
1:00pm 23 25 mph 1014.7mb 68f
12:00pm 26 31 mph 1015.2mb 72f
11:00am 28 30 mph 1016mb 72f
10:00am 30 31 mph 1016.1mb 72f
9:00am 26 30 mph 1016.2mb 71f
8:00am 23 25 mph 1015.9mb 70f
7:00am 22 25 mph 1015.8mb 69f
6:00am 23 26 mph 1015.5mb 69f
5:00am 23 25 mph 1015.5mb 69f
4:00am 20 22 mph 1015.6mb 68f
3:00am 21 23 mph 1015.4mb 68f
2:00am 16 17 mph 1015.7mb 67f
1:00am 11 13 mph 1016.7mb 66f
12:00am 15 20 mph 1017.5mb 66f
Sun 01/25 11:00pm 15 18 mph 1018.5mb 65f
10:00pm 11 13 mph 1018.4mb 65f
9:00pm 13 15 mph 1018.5mb 65f
8:00pm 13 15 mph 1018.3mb 65f
7:00pm 13 14 mph 1017.6mb 64f
6:00pm 8 10 mph 1017.2mb 64f
5:00pm 9 13 mph 1016.7mb 64f
4:00pm 14 16 mph 1016.9mb 64f